Retour au catalogue

STARLINK-33574

ActifCommunicationsVLEO
NORAD 62774·PAYLOAD·🇺🇸 United States

Lancé Jan 21, 2025 depuis Vandenberg Space Force Base

Loading…

Prochains Passages (prochaines 24 heures)

TLE

FraisSource: CelesTrak SupGP

Époque: Sep 15, 2026, 02:39 UTC

1 62774C 25015S   26258.11090278 -.00009292  00000+0 -27457-3 0  2589
2 62774  53.1565 158.6558 0001010  92.0753  74.1354 15.34390485    16

Suivez STARLINK-33574 en temps réel avec AllMySat

Download on the App Store